Dewpoint
60 57 57 55 50 49 46 43 26 38 31 24 26 23 15 29 34 27 24 26 25 24 25 30 29 30 25 27 29 30 29 25 23 17 27 43 58 58 61 62 61 61 60 63 66 68 69 70 71 72 71 71 71 71 71 71 70 70 70 71 71 70 70 70 70 70 70 69 70 69 70 70 70 69 69 69 69 69 69 69 70 70 70 69 69 69 69 68 68 68 68 67 66 65 64 64 63
56 55 54 53 50 45 38 36 29 26 28 20 20 21 22 28 28 26 19 22 25 26 32 30 29 31 33 33 32 31 29 30 29 34 45 52 52 56 58 62 60 59 61 64 66 67 68 70 70 71 71 71 71 71 70 70 70 70 70 71 70 71 70 70 70 70 69 69 70 69 70 69 69 69 68 69 69 68 69 69 69 69 69 69 69 69 69 68 67 67 67 66 65 64 63 62 62
54 51 52 52 47 43 41 36 23 26 20 13 11 16 29 22 21 18 22 23 25 27 32 33 32 31 30 31 28 27 22 34 34 36 37 51 49 53 57 61 61 62 62 65 66 66 67 68 69 71 71 71 71 71 71 70 70 70 71 71 71 71 70 69 69 69 69 69 69 70 69 69 69 68 68 68 68 67 67 68 67 68 68 68 68 68 68 67 67 67 66 65 64 63 62 61 61
57 52 50 44 37 41 34 32 27 21 18 14 12 22 21 17 19 20 25 26 27 26 32 32 28 32 29 26 26 30 28 28 33 36 34 44 50 59 57 60 62 61 62 66 66 66 67 68 69 71 71 71 71 71 70 70 70 70 70 70 70 70 70 70 69 69 69 69 69 69 69 69 68 68 68 67 67 67 67 66 66 66 66 66 67 67 67 66 66 65 65 64 63 62 62 61 60
56 50 52 45 43 33 32 34 30 24 14 17 8 17 20 21 19 25 25 27 28 26 29 32 30 31 31 30 31 26 23 34 34 40 43 51 54 57 58 61 60 60 62 65 65 66 67 69 69 70 71 71 71 71 70 70 70 70 70 70 70 70 70 69 69 69 69 69 69 69 68 69 68 67 66 66 65 65 65 65 64 65 64 66 65 65 65 64 64 64 64 63 62 61 61 61 60
51 47 49 48 34 39 33 26 27 21 17 19 13 12 17 22 22 25 27 28 28 28 28 30 29 26 28 29 31 27 34 22 42 39 48 51 57 60 59 62 58 59 61 65 65 65 67 68 68 70 71 71 71 70 70 70 70 70 70 70 70 70 69 69 69 69 69 69 69 69 68 68 67 66 65 65 64 64 64 63 64 64 64 64 64 63 63 64 63 63 63 62 61 60 59 59 59
46 42 41 39 40 39 28 26 21 21 20 25 19 15 15 25 27 28 25 26 29 29 30 29 28 28 26 27 27 32 38 45 36 49 53 55 57 60 60 59 60 59 62 64 64 65 67 67 69 71 71 71 71 70 70 70 70 70 70 70 70 70 69 69 69 69 69 69 69 68 67 67 66 65 65 64 63 63 63 63 63 63 63 63 63 62 62 63 62 62 62 61 60 59 58 58 58
48 44 42 29 34 31 26 28 25 26 21 25 26 26 21 24 29 28 26 25 23 24 29 30 28 25 24 26 22 41 38 41 51 50 49 48 58 61 60 59 59 59 62 63 65 66 67 66 68 70 71 71 71 70 70 70 70 70 69 69 69 69 69 69 69 68 68 68 67 67 66 66 65 65 65 63 62 63 62 62 62 62 62 61 61 60 60 61 61 61 61 60 59 57 57 57 57
41 37 43 37 26 33 26 22 22 30 25 30 26 30 35 30 31 29 27 28 27 26 26 27 29 23 22 23 24 35 29 43 46 48 49 50 57 61 59 60 58 60 61 63 65 66 68 65 67 69 70 70 70 70 69 69 69 69 68 68 69 68 68 68 68 67 67 67 67 66 65 65 64 62 59 60 59 60 62 60 61 60 60 60 60 60 60 60 60 60 59 58 57 57 56 56 56
38 39 29 31 32 23 25 21 19 19 24 27 24 21 21 24 25 29 27 26 26 26 25 26 28 24 23 22 22 26 33 44 45 47 49 51 56 59 59 61 61 62 62 62 64 66 67 65 65 67 68 70 70 69 68 68 68 68 68 67 68 68 67 67 67 67 67 66 66 65 65 65 63 61 60 60 60 60 60 60 60 60 60 60 60 60 61 60 60 59 58 57 56 56 56 55 55
28 34 39 29 26 22 23 15 21 22 21 21 24 25 26 27 28 27 28 26 27 25 24 26 25 25 24 23 24 45 44 42 43 42 49 49 57 59 58 61 62 63 62 64 64 65 65 66 63 65 66 67 68 68 68 68 67 67 68 68 67 68 67 67 67 67 67 65 65 64 64 63 63 60 60 60 61 61 61 60 60 60 60 60 61 61 60 60 59 59 58 56 56 56 55 55 55
29 30 34 27 22 20 18 19 21 20 23 29 25 25 26 26 29 26 27 25 25 26 26 26 24 25 24 23 28 35 36 35 44 48 49 52 53 58 59 59 61 61 63 63 64 63 65 65 65 63 64 65 65 67 67 67 67 67 67 67 66 66 67 67 67 66 66 65 64 63 63 63 62 60 60 61 61 61 61 61 61 60 60 60 60 61 60 60 59 58 57 56 55 55 54 54 53
35 38 27 20 21 20 30 23 21 28 27 21 20 24 28 27 25 22 23 25 25 24 24 26 27 25 22 24 32 29 26 44 42 48 51 49 54 58 60 58 60 61 61 63 63 63 65 64 65 64 64 62 63 63 64 65 65 65 65 66 65 66 66 66 64 64 64 64 62 63 63 64 63 61 61 61 61 61 60 60 60 59 60 60 60 60 60 59 58 57 56 56 55 54 53 53 52
33 39 29 24 29 25 23 21 27 24 14 20 22 25 28 26 25 25 25 23 24 23 25 26 25 25 24 25 25 26 28 44 44 49 49 53 56 57 59 58 60 60 61 63 62 63 64 64 64 65 65 63 64 63 62 63 64 64 65 64 64 65 65 65 64 64 63 64 63 63 63 63 62 62 61 61 61 60 60 59 59 59 60 60 60 60 59 58 58 57 56 55 54 53 52 51 50
34 37 29 31 29 26 29 24 24 24 17 22 23 23 25 27 27 27 24 21 20 26 26 26 28 24 18 22 19 26 36 48 48 50 53 54 56 57 59 59 60 61 61 61 61 62 62 63 62 64 64 63 63 63 63 64 62 63 63 63 63 64 64 63 63 63 63 62 62 62 61 61 60 61 61 61 60 61 61 60 60 59 60 59 59 59 59 58 57 56 56 55 53 53 52 51 49
42 37 33 29 24 25 26 25 27 25 18 20 24 24 23 23 27 25 24 25 26 32 26 23 27 22 23 24 24 32 37 44 48 51 52 55 56 57 57 58 57 58 60 60 60 62 62 62 63 63 63 63 63 63 63 63 61 61 62 63 63 63 63 62 62 62 60 59 60 59 59 60 59 59 58 59 60 61 60 58 60 60 59 59 58 58 58 57 57 56 55 54 53 52 51 49 48
40 39 28 26 18 26 27 22 24 18 20 21 25 24 21 19 25 25 25 26 23 21 27 25 24 26 25 23 35 34 38 46 49 51 53 53 54 54 55 56 57 56 58 59 60 60 61 61 62 62 62 62 63 62 63 63 64 60 60 60 60 61 61 61 61 59 57 56 57 56 57 59 59 59 60 58 57 59 56 57 59 59 58 58 57 57 57 57 57 56 55 54 53 52 51 50 48
38 30 26 26 20 24 25 20 23 24 18 17 23 23 21 20 23 22 24 23 23 23 23 25 26 27 26 33 39 40 43 45 49 50 51 52 53 52 53 54 55 55 57 57 58 58 59 60 62 61 62 62 62 63 63 64 64 61 61 61 61 61 60 58 60 60 57 60 57 58 58 57 57 58 57 56 57 58 58 56 57 59 58 57 56 56 56 56 56 55 54 53 52 49 46 42 40
33 30 28 21 26 21 23 21 20 21 20 19 20 22 22 21 23 23 22 21 22 22 22 22 23 24 25 28 37 36 42 44 46 46 49 51 52 51 52 54 54 54 55 56 56 57 58 59 60 60 61 61 62 62 63 62 62 61 61 61 61 60 60 60 59 59 59 59 59 58 56 57 57 57 56 57 57 55 56 56 57 58 57 56 56 55 54 54 53 52 50 48 46 42 38 36 34
35 30 25 25 27 24 23 24 22 22 20 21 21 23 23 23 23 23 23 22 22 22 21 20 23 22 23 25 29 34 38 40 44 45 46 48 49 49 50 53 53 54 54 55 56 57 57 58 59 60 60 61 61 60 61 60 60 60 60 59 59 59 60 60 59 60 59 58 59 57 56 56 56 54 53 53 54 56 56 54 56 56 56 56 55 53 53 52 51 49 46 43 38 40 32 29 31
36 30 26 25 28 25 24 24 24 23 24 23 23 24 24 25 24 23 23 22 21 21 21 20 17 17 21 23 28 37 36 38 42 44 44 45 48 49 48 50 52 53 55 55 56 56 56 57 58 59 60 60 61 60 60 59 60 59 59 58 57 57 58 59 59 59 59 59 59 57 56 55 56 53 55 54 54 53 54 55 55 54 54 53 52 51 50 51 47 43 36 32 31 35 32 31 31
35 28 26 25 29 26 24 25 26 25 26 25 24 24 24 25 23 23 23 22 19 17 18 22 22 22 22 21 24 37 34 38 37 41 43 44 45 45 47 49 51 52 54 54 55 55 56 56 57 58 59 60 60 59 59 59 60 59 58 58 58 57 58 58 58 58 58 58 58 56 53 54 54 52 54 53 52 53 53 53 53 52 53 52 50 50 48 45 39 34 33 32 29 31 32 32 31
25 26 29 29 29 26 28 27 27 26 25 25 25 26 27 26 25 25 24 23 23 23 22 22 22 23 24 24 29 33 36 36 36 40 41 43 44 44 43 45 47 49 52 52 54 54 55 55 56 57 57 58 58 59 59 59 58 59 58 58 58 57 57 57 57 56 56 56 56 54 53 52 52 51 52 52 52 53 53 52 51 50 51 49 47 44 42 37 30 28 28 31 29 31 33 33 33
29 21 29 27 30 30 29 28 28 27 27 26 26 29 28 27 26 26 25 25 25 24 24 24 24 24 25 24 25 26 31 34 38 37 40 41 43 45 46 44 44 47 51 51 52 53 55 55 55 55 56 56 56 56 57 57 58 58 58 57 57 56 56 57 56 55 54 53 54 52 51 50 49 49 51 51 51 51 51 50 49 47 46 44 42 40 37 31 29 28 31 33 31 31 31 31 29
29 28 28 28 29 28 30 31 31 31 30 29 30 30 28 27 27 27 26 26 26 25 25 25 25 25 25 24 24 25 28 31 34 38 42 41 44 45 48 47 46 47 47 49 51 52 54 55 54 54 55 55 55 56 56 56 57 58 57 57 57 56 56 57 56 55 52 51 51 51 50 48 48 48 49 49 49 49 49 48 45 44 43 41 38 34 33 30 28 27 29 28 28 28 28 30 29
29 25 26 29 28 27 28 28 29 30 29 30 29 27 27 26 24 22 23 23 24 25 25 24 24 24 24 24 23 24 23 27 34 35 36 41 43 42 44 44 45 44 45 47 50 51 52 53 54 54 55 55 55 55 55 56 56 56 56 57 56 56 56 56 55 53 52 49 48 49 49 48 47 46 47 47 47 48 47 46 44 42 40 37 34 32 29 26 26 26 27 30 29 29 26 27 25
27 28 27 26 25 24 25 24 23 26 26 27 25 23 22 23 22 18 19 20 22 22 22 22 23 23 23 23 24 24 23 25 25 29 34 39 40 41 40 44 44 43 44 45 47 49 51 52 54 54 54 55 55 55 55 55 55 55 56 57 57 55 56 55 53 53 51 48 47 47 48 47 45 45 45 45 45 46 45 44 42 39 37 34 32 30 29 29 27 25 28 24 25 25 25 25 23
23 23 22 22 21 22 23 23 22 23 21 24 24 22 22 22 24 20 19 20 22 20 18 19 22 22 21 22 22 28 25 26 27 31 31 30 35 37 38 40 42 43 44 44 45 47 49 51 52 53 54 55 55 54 55 55 54 55 56 56 56 55 55 53 52 52 50 48 47 46 46 45 44 43 44 43 43 43 42 42 40 37 35 32 30 31 29 30 28 31 34 30 30 29 25 25 26
23 23 20 19 20 18 17 18 17 22 19 22 23 21 19 21 19 19 20 20 19 19 18 17 16 17 20 22 22 23 25 25 27 28 29 29 32 35 36 40 41 42 43 44 44 46 47 49 50 52 53 54 54 54 54 54 54 55 55 56 55 55 54 53 51 50 49 48 46 46 45 44 42 42 42 42 41 41 41 40 37 36 33 31 29 33 34 33 30 29 31 31 29 28 26 27 32
22 22 20 17 16 15 17 17 19 20 19 21 18 11 12 15 17 18 17 18 18 17 17 16 16 17 18 19 19 21 22 25 26 29 28 30 32 32 34 35 40 41 42 43 43 43 44 48 50 51 52 53 54 53 53 54 54 55 55 55 54 54 53 52 51 49 48 47 46 45 44 43 41 39 40 41 39 37 39 39 37 34 32 32 32 33 29 26 24 27 27 24 27 23 24 23 18
18 19 19 18 17 15 17 16 19 17 20 21 16 15 11 11 12 12 17 15 14 13 13 13 14 15 16 20 22 21 21 25 24 22 31 32 31 33 34 34 37 39 40 41 42 43 41 46 49 49 51 53 54 53 54 54 54 54 54 54 53 53 53 51 50 49 46 45 44 44 44 42 40 38 39 38 37 35 35 35 35 32 32 32 30 29 26 25 26 27 22 20 22 21 24 24 24
19 16 17 23 17 16 15 18 18 15 19 21 16 17 13 11 11 12 15 16 15 14 14 14 15 15 15 17 16 16 17 18 23 24 23 24 28 29 33 34 35 36 37 39 41 42 40 42 47 48 50 51 53 53 53 53 53 53 53 52 52 53 52 51 50 48 46 44 42 43 43 41 39 38 37 37 35 33 31 32 32 31 34 30 30 30 29 25 24 27 24 25 20 23 23 23 24
20 17 20 20 21 19 17 16 16 17 18 20 15 11 9 12 13 14 16 16 16 15 15 16 15 16 16 16 17 17 19 19 22 22 25 26 27 27 28 28 34 36 37 38 40 41 41 41 43 45 47 50 51 52 53 53 53 52 52 52 51 52 51 50 49 48 46 44 41 40 41 40 38 38 36 36 34 33 29 29 29 34 33 29 30 29 26 25 26 30 25 26 21 20 22 25 24
21 22 18 23 18 14 13 15 15 25 15 13 18 15 13 13 13 13 14 16 16 15 15 15 16 16 17 19 18 18 18 20 19 20 23 25 27 27 24 31 32 34 37 38 39 40 39 40 43 44 46 48 50 51 52 52 52 52 51 51 50 49 51 49 48 47 45 43 40 39 40 39 37 37 36 35 32 32 30 29 31 33 31 30 30 28 24 26 26 24 22 25 25 21 18 21 21
20 22 22 17 18 16 14 14 14 14 16 14 14 15 15 15 15 15 16 16 15 15 15 16 16 16 17 18 18 18 20 20 20 21 24 26 28 30 29 30 32 35 35 35 37 39 40 40 41 43 44 46 48 50 51 51 51 50 50 50 49 48 49 48 47 45 45 43 41 40 39 38 36 36 36 35 32 30 29 29 31 33 31 30 30 27 29 28 28 25 23 23 28 25 17 21 22
18 18 17 17 17 14 14 14 15 16 14 14 14 14 14 14 15 15 15 15 16 16 16 17 17 17 17 18 19 20 24 22 25 29 33 30 30 32 32 32 34 37 34 33 35 38 39 39 40 41 41 42 45 47 49 49 49 48 48 48 47 47 47 46 46 44 44 42 41 39 38 37 35 35 35 34 32 30 28 28 30 33 30 29 29 28 27 24 27 28 27 25 23 25 27 28 26
19 22 23 17 18 17 17 17 17 17 15 15 15 15 15 16 16 16 17 17 18 17 17 18 19 19 21 21 22 24 25 24 39 35 35 36 37 36 37 37 36 34 34 34 34 37 38 38 39 39 39 40 41 44 46 47 47 47 47 46 46 46 45 45 44 44 43 41 40 39 38 36 36 35 34 34 31 30 27 28 30 32 30 29 29 28 28 27 27 25 26 25 24 20 23 27 27
20 21 22 19 23 18 18 17 18 18 18 17 17 17 18 17 17 18 18 18 17 17 18 19 18 18 20 21 24 27 26 33 36 33 33 34 34 41 42 39 38 33 32 31 34 36 37 37 38 39 38 38 39 40 43 45 46 46 45 46 45 45 44 43 43 43 42 41 39 39 38 36 36 35 33 34 31 30 27 27 29 30 30 28 28 29 31 31 28 25 27 22 25 18 18 25 27
21 20 20 21 20 21 20 19 19 19 19 16 17 17 18 18 18 19 18 18 19 19 20 19 19 21 22 27 27 27 27 28 29 29 33 31 36 38 38 38 38 36 35 35 35 37 38 38 38 38 38 38 38 38 41 43 44 45 44 44 43 43 43 42 43 42 41 39 38 38 37 36 35 35 34 34 32 30 28 26 26 28 30 29 28 30 30 29 27 27 25 18 19 23 19 26 25
21 21 21 20 23 22 19 20 19 19 18 19 19 19 19 18 19 19 20 19 20 22 21 23 24 23 25 25 25 25 25 30 30 28 27 28 34 32 36 37 37 39 38 35 35 36 35 36 37 38 38 38 37 38 39 41 43 43 43 41 40 41 39 40 40 38 38 38 37 37 36 35 35 34 34 34 32 31 28 26 26 27 28 30 28 27 28 28 27 25 25 20 18 18 22 19 26
26 26 23 21 23 21 21 18 20 20 20 24 21 20 19 23 18 18 20 22 21 21 21 22 26 30 28 32 31 30 24 27 31 28 31 29 30 33 35 37 38 39 39 39 39 36 34 36 38 39 37 37 37 37 38 39 40 41 40 41 39 38 38 36 37 37 37 37 36 35 35 35 35 34 34 33 31 31 30 27 26 26 27 29 27 27 27 27 27 26 25 23 20 14 17 16 21
23 29 24 22 22 20 21 22 24 20 20 22 25 17 19 21 20 20 21 19 19 20 22 24 24 26 26 26 28 30 36 35 30 27 30 33 33 35 33 36 37 38 36 36 37 36 35 36 37 38 38 37 37 38 38 37 38 38 38 37 36 35 35 35 34 35 36 35 35 35 35 34 34 34 34 33 32 30 31 29 28 27 28 27 27 26 26 27 28 26 25 23 23 19 17 20 18
23 23 27 24 23 24 25 25 24 18 17 22 23 17 18 19 18 18 18 18 18 19 24 23 23 24 23 26 28 27 29 29 34 33 31 30 31 31 30 32 35 35 35 37 37 36 36 37 37 38 37 37 38 37 38 37 38 37 37 37 36 35 34 35 34 34 34 34 34 33 33 33 33 33 34 33 32 30 30 30 30 28 26 26 26 25 25 27 27 27 26 23 21 21 23 18 20
22 33 30 30 28 28 27 26 25 21 26 28 23 20 17 19 19 19 19 19 18 18 19 23 24 21 24 24 25 29 29 29 32 32 29 30 30 30 29 32 33 35 37 38 38 37 37 37 37 37 37 36 38 38 37 37 36 37 38 37 36 36 35 34 33 31 33 32 32 32 32 32 33 33 33 33 32 31 30 30 30 28 27 27 26 24 24 26 27 29 27 25 24 19 25 16 21
26 29 29 28 26 27 26 25 22 22 19 21 23 27 18 19 21 19 20 20 18 18 19 21 21 22 24 25 26 28 27 31 29 30 30 30 31 31 31 33 35 36 38 39 38 37 38 38 38 37 36 36 36 37 37 37 36 36 37 37 36 36 36 35 34 32 31 31 32 31 31 30 31 32 32 33 32 31 30 30 30 28 27 26 25 25 25 26 27 27 27 24 24 19 20 21 19
31 31 31 30 31 29 27 22 22 21 18 21 20 24 20 20 26 18 20 20 20 21 20 18 22 23 27 27 28 28 28 31 32 29 29 30 30 31 34 33 33 36 37 38 37 37 38 38 37 36 36 36 36 37 36 37 37 36 37 37 37 36 35 34 34 33 32 32 31 31 31 30 30 31 31 32 32 32 31 29 30 29 28 26 25 24 27 29 28 28 27 25 24 24 21 21 20
33 33 28 28 27 25 23 23 21 21 19 22 23 24 21 19 23 21 22 25 21 18 16 18 23 25 25 27 26 28 28 29 30 30 30 31 32 32 33 33 33 34 36 36 37 37 36 36 36 35 35 35 35 36 36 36 37 36 36 37 38 37 37 36 34 33 32 32 31 31 31 30 29 30 30 31 32 32 31 30 29 29 27 26 25 25 26 26 26 27 27 27 25 25 20 22 25
30 26 23 23 24 19 20 23 23 20 20 21 21 24 24 19 20 23 19 18 19 19 19 19 21 24 23 26 28 29 29 29 30 30 31 32 32 32 33 33 33 33 33 33 35 36 36 36 34 34 34 35 34 35 36 36 36 37 37 37 37 37 36 36 35 34 33 33 32 31 30 29 28 30 30 29 31 31 31 30 30 29 27 26 25 23 24 24 24 25 24 24 24 26 24 23 22
26 24 22 20 20 22 21 20 19 18 21 21 19 23 18 18 20 18 19 19 19 21 20 21 22 23 25 28 29 30 31 30 29 30 30 31 32 32 32 32 33 33 33 33 33 34 34 34 33 33 33 33 33 34 35 36 36 36 36 36 36 36 36 36 35 35 34 33 32 31 30 29 29 30 29 29 30 31 31 30 29 28 26 25 25 24 25 25 24 23 24 26 24 26 23 24 20
24 21 22 22 21 22 22 22 20 19 24 17 17 22 19 20 20 21 20 20 21 22 23 27 25 23 27 29 29 29 30 30 30 30 29 30 30 31 31 31 32 32 32 33 33 33 34 33 32 32 32 33 32 32 33 34 34 35 35 35 35 35 35 35 35 34 34 33 33 31 31 30 30 29 29 29 29 31 31 30 30 29 27 27 26 25 25 26 26 22 24 24 25 24 24 26 23
23 29 24 25 25 24 22 23 22 24 25 23 20 23 23 22 22 21 20 22 24 23 24 26 27 29 30 29 29 27 27 27 28 28 28 28 29 29 30 30 31 31 31 32 32 32 33 33 33 32 32 32 32 32 32 32 32 33 34 34 35 34 34 34 33 34 33 33 32 31 31 30 29 30 29 30 30 31 31 30 30 30 29 28 27 26 28 26 27 23 22 25 24 23 24 24 22
27 30 27 23 24 26 22 24 25 24 25 26 22 23 24 22 25 27 27 24 22 22 24 27 28 29 29 28 27 27 26 26 27 27 28 27 28 28 29 29 29 30 30 30 30 32 32 32 32 32 32 32 32 32 32 32 32 31 33 33 33 33 33 33 33 33 32 32 33 31 31 31 30 30 30 31 31 31 31 30 30 30 29 29 28 27 27 25 26 24 21 22 23 27 24 25 22
26 25 22 24 31 25 24 25 28 28 24 23 29 25 27 26 26 26 26 24 23 25 26 27 27 28 27 27 26 26 26 26 26 26 26 26 26 27 28 28 28 28 29 28 28 29 30 30 31 31 31 32 32 32 31 31 32 32 32 31 32 33 33 34 33 33 33 33 33 32 30 30 31 30 32 32 32 31 31 30 30 29 29 29 28 27 26 25 25 24 21 22 22 24 22 24 22
25 22 25 30 33 31 24 20 25 22 20 23 24 24 23 24 23 25 24 24 25 26 26 26 26 26 26 26 26 25 25 25 25 25 25 25 25 25 26 27 27 27 27 27 26 28 28 30 29 30 30 31 31 32 32 31 31 32 32 32 32 31 31 32 33 33 33 33 33 31 31 31 30 31 31 35 32 31 31 30 29 29 29 29 28 27 26 25 26 23 22 21 21 22 22 20 22
26 26 33 25 22 22 21 23 19 20 21 22 24 24 24 24 25 25 25 25 25 25 25 24 24 24 25 25 24 24 25 25 25 24 24 24 24 24 25 25 26 26 26 26 26 26 27 27 28 28 28 29 31 32 32 32 32 33 33 32 32 31 31 31 31 31 32 32 32 32 31 30 31 31 30 31 31 30 30 30 29 28 28 28 27 26 26 25 25 22 21 21 20 22 20 18 20
32 30 26 30 22 24 23 23 26 23 21 22 23 26 24 28 24 26 25 26 26 25 25 24 23 23 23 24 25 24 24 24 24 24 23 23 23 23 23 24 24 25 25 26 25 25 24 26 25 26 28 29 29 30 31 31 32 32 32 31 31 31 31 31 31 31 30 31 31 31 31 31 31 30 30 30 29 29 29 29 28 27 27 27 26 25 25 24 23 22 20 20 17 18 16 15 15
23 24 22 26 26 30 27 27 25 23 22 22 21 21 25 28 30 26 25 25 25 24 24 25 24 23 24 24 24 24 24 24 23 23 23 23 23 23 23 23 24 24 26 25 25 24 24 24 25 26 27 27 29 29 30 30 31 32 31 31 30 30 30 30 30 30 30 30 30 30 30 30 30 29 29 29 29 29 28 28 28 27 27 26 26 25 24 23 21 20 19 18 16 16 15 14 14
26 28 25 25 24 24 22 22 29 26 22 22 21 20 23 34 26 25 24 25 25 25 24 23 23 22 24 25 24 24 24 23 23 23 22 23 22 22 22 23 23 23 23 24 25 24 24 22 24 26 26 27 27 28 29 29 30 31 31 31 31 31 30 30 30 30 30 29 29 29 30 30 29 29 29 29 27 29 28 28 27 27 27 26 25 25 23 21 20 19 18 20 17 14 13 13 12